sat.trackr.live / text

‹ back to catalog

QIANFAN-100

NORAD 66042 · 2025-233K

PAYLOAD ACTIVE UNKNOWN

§ Identity

Operator
Country
PRC
Launch date
2025-10-17
Launch site
TAISC
Launch vehicle
Mass (kg)
RCS (m²)

External: N2YO · Heavens-Above · Gunter

§ Orbital elements

Epoch: 2026-09-20T09:38:56.249952Z

Period
106.59 min
Inclination
89.0071°
Eccentricity
0.0001798
Mean motion
13.51020431 rev/d
Perigee alt
1,067.2 km
Apogee alt
1,069.8 km
Semi-major
7,446.6 km
B*
1.0928e-4
RAAN
33.5097°
Arg perigee
94.5084°
Mean anomaly
265.6273°
Rev number
4,609

§ Raw data

QIANFAN-1001 66042U 25233K   26263.40203993  .00000083  00000+0  10928-3 0  99952 66042  89.0071  33.5097 0001798  94.5084 265.6273 13.51020431 46097

JSON: /api/v1/satellites/66042 · /tle

For live sub-satellite position, see the globe view (requires WebGL).

§ Visibility from observer

Set your observer location to see the next 7 days of passes ≥ 10°. The values pass through the URL so the page stays shareable.

No JS? Fill the form by hand. The geolocation button needs JavaScript.